When you browse on this site, cookies collect data to enhance your experience and personalize the content and advertising you see.
Visit our Privacy Policy to learn more. By continuing to use the site, you agree to this use of cookies and data.
  • In Spain
  • List of Countries
  • For 7 days
  • Water Temperature
  • Weather Map
  • Weather Widgets
  • user-avatar
    Login

    Hourly Weather Bologna

    Today, 22 August, Thursday

    Time Temperature Precipitation Wind Pressure Humidity
    00:00 +23°C° 0.1 mm 2 mps 757 mmHg 83%
    01:00 +23°C° 0.1 mm 1 mps 757 mmHg 86%
    02:00 +23°C° 0 mm 1 mps 757 mmHg 87%
    03:00 +22°C° 0 mm 1 mps 757 mmHg 88%
    04:00 +22°C° 0 mm 1 mps 757 mmHg 89%
    05:00 +23°C° 0.1 mm 1 mps 757 mmHg 87%
    06:00 +23°C° 0.1 mm 2 mps 757 mmHg 84%
    07:00 +24°C° 0.1 mm 2 mps 757 mmHg 82%
    08:00 +25°C° 0.1 mm 2 mps 757 mmHg 77%
    09:00 +25°C° 0.1 mm 2 mps 757 mmHg 72%
    10:00 +26°C° 0.1 mm 2 mps 758 mmHg 67%
    11:00 +28°C° 0 mm 2 mps 757 mmHg 61%
    12:00 +29°C° 0 mm 2 mps 757 mmHg 55%
    13:00 +31°C° 0 mm 2 mps 757 mmHg 48%
    14:00 +31°C° 0.1 mm 3 mps 757 mmHg 48%
    15:00 +31°C° 0.1 mm 3 mps 756 mmHg 47%
    16:00 +33°C° 0.1 mm 3 mps 756 mmHg 46%
    17:00 +30°C° 0.1 mm 3 mps 756 mmHg 52%
    18:00 +28°C° 0.1 mm 2 mps 756 mmHg 58%
    19:00 +27°C° 0.1 mm 2 mps 756 mmHg 64%
    20:00 +26°C° 0.1 mm 2 mps 756 mmHg 67%
    21:00 +25°C° 0.1 mm 1 mps 757 mmHg 70%
    22:00 +24°C° 0.1 mm 1 mps 757 mmHg 73%
    23:00 +24°C° 0 mm 1 mps 757 mmHg 74%

    Tomorrow, 23 August, Friday

    Time Temperature Precipitation Wind Pressure Humidity
    00:00 +24°C° 0 mm 1 mps 757 mmHg 76%
    01:00 +21°C° 0 mm 0 mps 757 mmHg 77%
    02:00 +21°C° 0 mm 0 mps 757 mmHg 79%
    03:00 +21°C° 0 mm 0 mps 757 mmHg 81%
    04:00 +20°C° 0 mm 0 mps 757 mmHg 83%
    05:00 +23°C° 0 mm 1 mps 757 mmHg 81%
    06:00 +23°C° 0 mm 1 mps 757 mmHg 80%
    07:00 +24°C° 0 mm 1 mps 757 mmHg 78%
    08:00 +26°C° 0 mm 1 mps 757 mmHg 72%
    09:00 +27°C° 0 mm 1 mps 757 mmHg 66%
    10:00 +29°C° 0 mm 2 mps 758 mmHg 61%
    11:00 +30°C° 0 mm 2 mps 757 mmHg 56%
    12:00 +31°C° 0 mm 2 mps 757 mmHg 50%
    13:00 +34°C° 0 mm 3 mps 757 mmHg 45%
    14:00 +34°C° 0 mm 3 mps 756 mmHg 44%
    15:00 +34°C° 0 mm 3 mps 756 mmHg 42%
    16:00 +34°C° 0 mm 3 mps 756 mmHg 41%
    17:00 +31°C° 0.3 mm 3 mps 756 mmHg 50%
    18:00 +29°C° 0.3 mm 3 mps 756 mmHg 59%
    19:00 +26°C° 0.3 mm 2 mps 756 mmHg 68%
    20:00 +26°C° 0.1 mm 2 mps 756 mmHg 72%
    21:00 +25°C° 0.1 mm 2 mps 756 mmHg 75%
    22:00 +24°C° 0.1 mm 1 mps 756 mmHg 78%
    23:00 +23°C° 0 mm 1 mps 756 mmHg 79%

    Day after tomorrow, 24 August, Saturday

    Time Temperature Precipitation Wind Pressure Humidity
    00:00 +23°C° 0 mm 1 mps 756 mmHg 79%
    01:00 +23°C° 0 mm 1 mps 756 mmHg 80%
    02:00 +23°C° 0.1 mm 1 mps 756 mmHg 81%
    03:00 +22°C° 0.1 mm 1 mps 756 mmHg 82%
    04:00 +22°C° 0.1 mm 1 mps 756 mmHg 83%
    05:00 +23°C° 0 mm 1 mps 756 mmHg 81%
    06:00 +23°C° 0 mm 1 mps 756 mmHg 79%
    07:00 +24°C° 0 mm 1 mps 756 mmHg 77%
    08:00 +26°C° 0 mm 1 mps 756 mmHg 70%
    09:00 +28°C° 0 mm 1 mps 756 mmHg 64%
    10:00 +30°C° 0 mm 2 mps 756 mmHg 57%
    11:00 +31°C° 0 mm 2 mps 756 mmHg 51%
    12:00 +34°C° 0 mm 2 mps 756 mmHg 46%
    13:00 +35°C° 0 mm 2 mps 755 mmHg 40%
    14:00 +35°C° 0 mm 2 mps 755 mmHg 39%
    15:00 +35°C° 0 mm 2 mps 755 mmHg 37%
    16:00 +36°C° 0 mm 2 mps 754 mmHg 36%
    17:00 +32°C° 0.9 mm 2 mps 754 mmHg 48%
    18:00 +29°C° 0.9 mm 2 mps 754 mmHg 61%
    19:00 +26°C° 0.9 mm 2 mps 754 mmHg 73%
    20:00 +25°C° 0.5 mm 2 mps 755 mmHg 74%
    21:00 +25°C° 0.5 mm 2 mps 755 mmHg 75%
    22:00 +24°C° 0.5 mm 1 mps 755 mmHg 76%
    23:00 +24°C° 0 mm 1 mps 755 mmHg 76%

    25 August, Sunday

    Time Temperature Precipitation Wind Pressure Humidity
    00:00 +24°C° 0 mm 1 mps 755 mmHg 76%
    01:00 +23°C° 0 mm 1 mps 755 mmHg 76%
    02:00 +23°C° 0 mm 1 mps 755 mmHg 77%
    03:00 +23°C° 0 mm 1 mps 755 mmHg 77%
    04:00 +23°C° 0 mm 1 mps 754 mmHg 77%
    05:00 +23°C° 0 mm 1 mps 755 mmHg 76%
    06:00 +24°C° 0 mm 1 mps 755 mmHg 74%
    07:00 +25°C° 0 mm 1 mps 755 mmHg 72%
    08:00 +27°C° 0 mm 1 mps 755 mmHg 65%
    09:00 +29°C° 0 mm 1 mps 755 mmHg 58%
    10:00 +31°C° 0 mm 1 mps 755 mmHg 50%
    11:00 +32°C° 0 mm 1 mps 755 mmHg 46%
    12:00 +33°C° 0 mm 1 mps 755 mmHg 41%
    13:00 +34°C° 0 mm 1 mps 754 mmHg 37%
    14:00 +35°C° 0 mm 1 mps 754 mmHg 35%
    15:00 +36°C° 0 mm 2 mps 754 mmHg 34%
    16:00 +36°C° 0 mm 2 mps 754 mmHg 33%
    17:00 +34°C° 0 mm 2 mps 754 mmHg 40%
    18:00 +31°C° 0 mm 2 mps 754 mmHg 47%
    19:00 +29°C° 0 mm 2 mps 754 mmHg 54%
    20:00 +28°C° 0 mm 2 mps 754 mmHg 56%
    21:00 +27°C° 0 mm 2 mps 755 mmHg 59%
    22:00 +26°C° 0 mm 1 mps 755 mmHg 61%
    23:00 +26°C° 0 mm 1 mps 755 mmHg 62%

    26 August, Monday

    Time Temperature Precipitation Wind Pressure Humidity
    00:00 +26°C° 0 mm 1 mps 755 mmHg 63%
    01:00 +25°C° 0 mm 1 mps 755 mmHg 64%
    02:00 +25°C° 0 mm 1 mps 755 mmHg 65%
    03:00 +24°C° 0 mm 1 mps 755 mmHg 67%
    04:00 +24°C° 0 mm 1 mps 755 mmHg 69%
    05:00 +25°C° 0 mm 1 mps 755 mmHg 66%
    06:00 +25°C° 0 mm 1 mps 755 mmHg 64%
    07:00 +26°C° 0 mm 1 mps 755 mmHg 62%
    08:00 +28°C° 0 mm 1 mps 756 mmHg 56%
    09:00 +30°C° 0 mm 1 mps 756 mmHg 50%
    10:00 +32°C° 0 mm 1 mps 756 mmHg 44%
    11:00 +34°C° 0 mm 2 mps 756 mmHg 41%
    12:00 +35°C° 0 mm 2 mps 756 mmHg 38%
    13:00 +36°C° 0 mm 2 mps 755 mmHg 35%
    14:00 +36°C° 0 mm 3 mps 755 mmHg 34%
    15:00 +36°C° 0 mm 3 mps 755 mmHg 33%
    16:00 +36°C° 0 mm 3 mps 755 mmHg 32%
    17:00 +34°C° 0 mm 3 mps 755 mmHg 39%
    18:00 +31°C° 0 mm 2 mps 755 mmHg 45%
    19:00 +29°C° 0 mm 2 mps 754 mmHg 52%
    20:00 +28°C° 0 mm 2 mps 755 mmHg 54%
    21:00 +27°C° 0 mm 2 mps 755 mmHg 56%
    22:00 +26°C° 0 mm 1 mps 756 mmHg 59%
    23:00 +26°C° 0 mm 1 mps 756 mmHg 59%

    27 August, Tuesday

    Time Temperature Precipitation Wind Pressure Humidity
    00:00 +25°C° 0 mm 1 mps 755 mmHg 60%
    01:00 +25°C° 0 mm 1 mps 755 mmHg 61%
    02:00 +25°C° 0 mm 1 mps 755 mmHg 62%
    03:00 +24°C° 0 mm 1 mps 755 mmHg 64%
    04:00 +24°C° 0 mm 1 mps 755 mmHg 66%
    05:00 +24°C° 0 mm 1 mps 755 mmHg 64%
    06:00 +25°C° 0 mm 1 mps 755 mmHg 63%
    07:00 +26°C° 0 mm 1 mps 755 mmHg 61%
    08:00 +28°C° 0 mm 1 mps 755 mmHg 55%
    09:00 +30°C° 0 mm 1 mps 755 mmHg 48%
    10:00 +32°C° 0 mm 1 mps 756 mmHg 42%
    11:00 +33°C° 0 mm 1 mps 755 mmHg 39%
    12:00 +35°C° 0 mm 2 mps 755 mmHg 36%
    13:00 +36°C° 0 mm 2 mps 755 mmHg 33%
    14:00 +36°C° 0 mm 2 mps 754 mmHg 34%
    15:00 +36°C° 0 mm 3 mps 754 mmHg 35%
    16:00 +36°C° 0 mm 3 mps 754 mmHg 35%
    17:00 +34°C° 0 mm 2 mps 754 mmHg 41%
    18:00 +31°C° 0 mm 2 mps 754 mmHg 47%
    19:00 +29°C° 0 mm 2 mps 754 mmHg 53%
    20:00 +28°C° 0.1 mm 2 mps 754 mmHg 57%
    21:00 +27°C° 0.1 mm 2 mps 754 mmHg 61%
    22:00 +26°C° 0.1 mm 2 mps 754 mmHg 65%
    23:00 +25°C° 0.2 mm 2 mps 754 mmHg 67%
    Show more